Home > Weather > Budapest > Past weeks

Flag for Hungary Weather for the Past 2 Weeks in Budapest, Hungary

Now
32 °F

Clear.


Feels Like: 22 °F
Forecast: 40 / 49 °F
Wind: 14 mph from East

Location: Ferenc Liszt International Airport

Current Time: Feb 7, 2016 at 5:11:49 AM

Latest Report: Feb 7, 2016 at 4:30 AM


Visibility: 10 mi

Pressure: 30.18 "Hg

Humidity: 100%

Dew point: 32 °F

Location of BudapestLocation

Historic Weather in Budapest — Graph

°F

Budapest Temperature Yesterday

Maximum temperature yesterday: 46 °F (at 2:00 PM)
Minimum temperature yesterday: 25 °F (at 12:00 AM)
Average temperature yesterday: 35 °F

High & Low Weather Summary for the Past Weeks

 TemperatureHumidityPressure
High55 °F (Feb 2, 12:00 PM)100% (Jan 24, 11:00 AM)30.60 "Hg (Jan 24, 11:00 AM)
Low7 °F (Jan 23, 7:30 AM)42% (Feb 5, 2:30 PM)29.86 "Hg (Jan 31, 3:00 AM)
Average36 °F90%30.25 "Hg
* Reported Jan 23 4:00 AM — Feb 7 4:00 AM, Budapest, Weather by CustomWeather, © 2016

Note: Actual official high and low records may vary slightly from our data, if they occured in-between our weather recording intervals... More about our weather records

Advertising

Budapest Weather History for the Previous 24 Hours

 ConditionsComfort  
Time TempWeatherWind HumidityBarometerVisibility
4:00 AM
Sun, Feb 7
32 °FClear.12 mph100%30.18 "Hg10 mi
3:30 AM32 °FClear.12 mph100%30.18 "Hg10 mi
3:00 AM32 °FClear.12 mph100%30.18 "Hg10 mi
2:30 AM32 °FClear.9 mph100%30.21 "Hg10 mi
2:00 AM32 °FClear.9 mph100%30.21 "Hg10 mi
1:30 AM32 °FClear.12 mph100%30.21 "Hg5 mi
1:00 AM34 °FClear.12 mph100%30.21 "Hg5 mi
12:00 AM34 °FClear.12 mph100%30.24 "Hg5 mi
11:30 PM
Sat, Feb 6
34 °FClear.10 mph100%30.24 "Hg5 mi
11:00 PM34 °FClear.12 mph100%30.24 "Hg5 mi
10:00 PM34 °FClear.10 mph100%30.27 "Hg10 mi
9:30 PM34 °FClear.9 mph100%30.27 "Hg10 mi
9:00 PM36 °FClear.9 mph100%30.27 "Hg10 mi
8:30 PM36 °FClear.10 mph100%30.27 "Hg10 mi
8:00 PM36 °FClear.10 mph100%30.27 "Hg10 mi
7:30 PM36 °FClear.8 mph100%30.27 "Hg10 mi
7:00 PM34 °FClear.6 mph100%30.27 "Hg10 mi
6:30 PM36 °FClear.7 mph93%30.27 "Hg10 mi
6:00 PM37 °FClear.5 mph93%30.27 "Hg10 mi
5:30 PM41 °FClear.5 mph81%30.27 "Hg10 mi
5:00 PM39 °FClear.6 mph81%30.27 "Hg10 mi
4:30 PM45 °FSunny.7 mph71%30.27 "Hg10 mi
4:00 PM46 °FSunny.10 mph62%30.27 "Hg10 mi
3:30 PM46 °FSunny.10 mph66%30.27 "Hg10 mi
3:00 PM46 °FPassing clouds.9 mph66%30.30 "HgN/A
2:30 PM46 °FPassing clouds.8 mph66%30.30 "HgN/A
2:00 PM46 °FPassing clouds.6 mph66%30.30 "HgN/A
1:30 PM45 °FPassing clouds.6 mph71%30.30 "HgN/A
1:00 PM45 °FSunny.7 mph71%30.33 "Hg10 mi
12:30 PM45 °FPassing clouds.6 mph76%30.33 "HgN/A
12:00 PM43 °FPassing clouds.6 mph81%30.36 "HgN/A
11:30 AM39 °FPassing clouds.5 mph87%30.36 "HgN/A
11:00 AM39 °FPassing clouds.5 mph87%30.36 "HgN/A
10:30 AM37 °FSunny.5 mph87%30.36 "Hg10 mi
10:00 AM37 °FPassing clouds.6 mph93%30.36 "HgN/A
9:30 AM36 °FPassing clouds.5 mph93%30.36 "HgN/A
9:00 AM34 °FPassing clouds.6 mph100%30.36 "HgN/A
8:30 AM30 °FScattered clouds.3 mph100%30.39 "HgN/A
8:00 AM28 °FScattered clouds.3 mph100%30.36 "HgN/A
7:30 AM28 °FPartly sunny.3 mph100%30.36 "HgN/A
7:02 AM27 °FMostly cloudy.3 mph100%30.36 "HgN/A
7:01 AM27 °FPassing clouds.3 mph100%30.36 "HgN/A
6:30 AM28 °FClear.6 mph100%30.36 "Hg10 mi
6:00 AM27 °FClear.7 mph100%30.36 "Hg10 mi
5:00 AM28 °FClear.5 mph100%30.36 "Hg10 mi
Weather by CustomWeather, © 2016

See weather overviewHow to use our weather pages